Flag for U.S.A. Weather past 2 weeks in Springfield, Illinois, U.S.A.

Now
81 °F

Passing clouds.


Feels Like: 81 °F
Forecast: 57 / 80 °F
Wind: 7 mph from Northwest

Location: Capital Airport

Current Time: Jul 30, 2014 at 4:37:15 PM

Latest Report: Jul 30, 2014 at 3:52 PM


Visibility: 10 mi

Pressure: 30.05 "Hg

Humidity: 45%

Dew point: 58 °F

Location of SpringfieldLocation

Historic Weather in Springfield — Graph

°F

Springfield temperature yesterday

Maximum temperature yesterday: 79 °F (at 3:52 PM)
Minimum temperature yesterday: 52 °F (at 5:52 AM)
Average temperature yesterday: 67 °F

Past Weeks' High & Low Weather Summary

 TemperatureHumidityPressure
High86 °F (Jul 21, 1:52 PM)97% (Jul 26, 9:52 PM)30.16 "Hg (Jul 26, 9:52 PM)
Low52 °F (Jul 16, 5:52 AM)39% (Jul 24, 3:52 PM)29.78 "Hg (Jul 27, 4:52 AM)
Average71 °F72%30.03 "Hg
* Reported Jul 15 2:52 PM — Jul 30 2:52 PM, Springfield, Weather by CustomWeather, © 2014

Note: Actual official high and low records may vary slightly from our data, if they occured in-between our weather recording intervals... More about our weather records

Advertising

Springfield weather history for previous 24 hours

 ConditionsComfort  
Time TempWeatherWind HumidityBarometerVisibility
2:52 PM
Jul 30
81 °FScattered clouds.7 mph49%30.06 "Hg10 mi
1:52 PM81 °FScattered clouds.7 mph47%30.06 "Hg10 mi
12:52 PM80 °FScattered clouds.7 mph51%30.07 "Hg10 mi
11:52 AM79 °FScattered clouds.7 mph52%30.08 "Hg10 mi
10:52 AM79 °FSunny.6 mph54%30.09 "Hg10 mi
9:52 AM75 °FSunny.6 mph64%30.09 "Hg10 mi
8:52 AM70 °FSunny.3 mph73%30.09 "Hg10 mi
7:52 AM64 °FSunny.3 mph84%30.08 "Hg10 mi
6:52 AM59 °FClear.5 mph90%30.07 "Hg10 mi
5:52 AM58 °FClear.5 mph90%30.06 "Hg10 mi
4:52 AM58 °FClear.3 mph90%30.05 "Hg10 mi
3:52 AM59 °FClear.3 mph90%30.06 "Hg10 mi
2:52 AM60 °FClear.6 mph86%30.05 "Hg10 mi
1:52 AM61 °FClear.7 mph87%30.06 "Hg10 mi
12:52 AM62 °FClear.6 mph83%30.07 "Hg10 mi
11:52 PM
Jul 29
63 °FClear.6 mph84%30.07 "Hg10 mi
10:52 PM63 °FClear.5 mph87%30.07 "Hg10 mi
9:52 PM64 °FClear.5 mph87%30.06 "Hg10 mi
8:52 PM66 °FSunny.3 mph84%30.05 "Hg10 mi
7:52 PM71 °FSunny.5 mph73%30.05 "Hg10 mi
6:52 PM76 °FSunny.6 mph56%30.06 "Hg10 mi
5:52 PM78 °FSunny.7 mph50%30.07 "Hg10 mi
4:52 PM79 °FSunny.6 mph45%30.08 "Hg10 mi
Weather by CustomWeather, © 2014

See weather overviewHow to use our weather pages